www.pogodaiklimat.ru

Погода и климат >> Архив погоды >> Беларусь >> Житковичи


ПОГОДА в Житковичах

АРХИВ ПОГОДЫ в Житковичах

Время (UTC), дата Ветер
(напр.,м/с)
 
Видим.   Явления Облачность Т
(С)
Тd
(С)
f
(%)
Тe
(С)
Тes
(С)
Комфортность P
(гПа)
Po
(гПа)
Тmin
(С)
Tmax
(С)
R
(мм)
R24
(мм)
S
(см)
00 13.07 штиль 0 4000 м дымка 3/0
[Ac trans]
+11.3 +10.9 97 +11 +11 прохладно 1010.2 993.8
03 13.07 штиль 0 4000 м дымка 3/0
[Ac trans]
+9.1 +8.6 97 +8 +9 очень
холодно
1010.2 993.7
06 13.07 Ю 1 10 км 8/0
[Ac trans Ci fib]
+15.9 +12.1 78 +17 +22 по сезону 1010.4 994.4 +8.6
09 13.07 В 1 20 км 8/5 600 м
[Cb calv Ci fib]
+20.3 +11.9 58 +23 +31 комфорт 1009.9 994.1
12 13.07 ЮВ 2 20 км {ливн. осадки} 8/3 600 м
[Cb calv Ac trans Ci fib]
+19.9 +11.0 56 +22 +28 комфорт 1009.7 993.9
15 13.07 Ю 2 20 км 6/3 600 м
[Cu hum Ac trans Ci fib]
+21.4 +11.5 53 +23 +26 комфорт 1009.0 993.2
18 13.07 штиль 0 10 км 9/4 600 м
[Cb cap Ac trans Ci fib]
+18.0 +12.4 70 +18 +18 прохладно 1009.5 993.6 +21.6 0.0
21 13.07 З 2 4000 м гроза, ливневой дождь 10/9 600 м
[Cb cap Ac und]
+14.9 +12.9 88 +15 +15 прохладно 1011.0 994.9
00 14.07 штиль 0 4000 м дымка {гроза, ливн. осадки} 9/5 600 м
[Sc Ac trans]
+13.1 +12.5 96 +13 +13 по сезону 1009.5 993.3
03 14.07 З 1 4000 м дымка 10/4 600 м
[Cb cap Ac As]
+12.8 +12.2 96 +13 +13 прохладно 1009.7 993.5
06 14.07 штиль 0 4000 м дымка {ливн. осадки} 10/8 300 м
[Sc diur, vesp Ac und]
+14.6 +13.1 91 +14 +15 холодно 1009.9 993.8 +12.8 6
09 14.07 СЗ 1 4000 м слаб. ливневой дождь 10/9 600 м
[Cb cap Ac und]
+15.0 +13.7 92 +15 +16 холодно 1010.5 994.4
12 14.07 штиль 0 10 км {ливн. осадки} 9/8 600 м
[Cb cap Ac trans]
+16.9 +14.1 84 +17 +19 очень
холодно
1009.9 993.9
15 14.07 СВ 1 10 км 9/4 600 м
[Cb cap Ac trans Ci fib]
+19.2 +12.2 64 +21 +23 комфорт 1009.5 993.6
18 14.07 С 1 10 км 8/3 600 м
[Cb cap Ac trans Ci fib]
+16.9 +14.3 85 +18 +18 прохладно 1009.6 993.6 +19.8 4
21 14.07 штиль 0 4000 м дымка 8/0
[Ac trans Ci fib]
+13.8 +13.2 96 +13 +13 холодно 1010.3 994.2
00 15.07 штиль 0 4000 м дымка 6/0
[Ci fib]
+11.7 +11.3 97 +11 +11 прохладно 1010.4 994.2
03 15.07 штиль 0 50 м туман ?/? +11.3 +11.3 100 +11 +11 холодно 1010.6 994.2
06 15.07 С 1 4000 м дымка {туман} 6/0
[Ac trans]
+16.2 +15.5 96 +17 +22 по сезону 1010.4 994.4 +10.3
09 15.07 СВ 2 20 км 8/6 600 м
[Cb calv Ci fib]
+20.0 +11.8 59 +22 +28 комфорт 1010.3 994.5
12 15.07 СВ 2 20 км 9/5 600 м
[Cb calv Ac trans]
+21.3 +10.7 51 +23 +27 комфорт 1009.9 994.1
15 15.07 СВ 2 20 км 9/6 600 м
[Cb cap Ac cuf Ci fib]
+22.6 +9.9 44 +24 +25 комфорт 1009.3 993.6
18 15.07 С 1 10 км 9/4 1000 м
[Cb cap Ac cuf Ci fib]
+20.4 +11.8 58 +23 +23 комфорт 1010.0 994.2 +23.5
21 15.07 ЮЗ 2 10 км 6/0
[Ac trans]
+14.6 +12.0 84 +14 +14 прохладно 1010.9 994.8
00 16.07 штиль 0 4000 м дымка 6/0
[Ac trans]
+11.6 +11.0 96 +11 +11 прохладно 1010.6 994.3
03 16.07 штиль 0 4000 м дымка 3/0
[Ac trans]
+10.5 +9.9 96 +10 +10 холодно 1010.7 994.3
06 16.07 Ю 1 10 км 4/0
[Ci fib]
+17.8 +13.0 73 +19 +26 по сезону 1009.9 994.0 +9.7
09 16.07 З 3 20 км 8/6 600 м
[Cu med, cong Ci fib]
+22.8 +10.3 45 +25 +29 комфорт 1008.9 993.2
12 16.07 штиль 0 20 км {ливн. осадки} 9/4 600 м
[Cb cap Ac trans Ci fib]
+20.6 +14.0 66 +23 +29 комфорт 1007.9 992.2
15 16.07 Ю 3 20 км 10/3 600 м
[Cb cap Ac trans Cs]
+22.4 +12.2 52 +25 +26 комфорт 1006.9 991.3
18 16.07 Ю 1 10 км 10/4 600 м
[Cb cap Ac trans Cs]
+20.5 +12.3 59 +24 +24 комфорт 1006.4 990.7 +24.3 0.5
21 16.07 СЗ 1 10 км 10/5 600 м
[Cb cap Ac trans Cs]
+16.2 +11.8 75 +17 +17 по сезону 1007.4 991.5
00 17.07 З 1 4000 м дымка {ливн. осадки} 9/4 600 м
[Cb cap Ac trans Cs]
+14.3 +13.0 92 +15 +15 по сезону 1007.3 991.2
03 17.07 З 1 4000 м дымка 9/5 600 м
[Cb cap Ac cast Cs]
+13.7 +12.4 92 +14 +14 прохладно 1007.2 991.1
06 17.07 З 1 10 км 10/5 600 м
[Cb cap Ac und]
+14.3 +11.3 82 +15 +16 прохладно 1006.9 990.8 +13.6 0.5
09 17.07 З 1 20 км 8/5 600 м
[Cb calv Ci fib]
+18.4 +11.1 62 +20 +28 по сезону 1006.1 990.3
12 17.07 С 1
{10}
20 км в посл. час гроза {ливн. осадки} 8/4 600 м
[Cb calv Ac trans]
+17.2 +9.8 62 +18 +24 холодно 1006.4 990.5
15 17.07 ЮЗ 2 10 км {ливн. осадки} 8/4 600 м
[Cu med, cong Ac trans Ci fib]
+17.3 +11.2 67 +18 +19 холодно 1006.5 990.6
18 17.07 З 2 10 км {ливн. осадки} 10/6 600 м
[Sc Ac As]
+14.9 +11.3 79 +15 +15 холодно 1007.4 991.3 +19.0 0.4
21 17.07 ЮЗ 1 4000 м дымка {ливн. осадки} 9/4 600 м
[Sc Ac trans]
+13.0 +11.7 92 +13 +13 холодно 1008.2 992.0
00 18.07 штиль 0 4000 м дымка {ливн. осадки} 9/0
[Ac trans]
+11.8 +11.0 95 +11 +11 прохладно 1008.0 991.8
03 18.07 ЮЗ 1 4000 м дымка 9/9 600 м
[Sc]
+11.4 +10.9 97 +11 +11 холодно 1008.2 991.9
06 18.07 З 2 10 км 8/3 1000 м
[Sc diur, vesp Ac trans Ci fib]
+15.1 +12.7 86 +15 +18 прохладно 1008.6 992.5 +11.2 0.9
09 18.07 З 4 20 км 9/6 600 м
[Cb calv Ac trans Ci fib]
+17.0 +11.9 72 +17 +19 прохладно 1009.2 993.2
12 18.07 З 4 20 км в посл. час ливневой дождь 9/6 600 м
[Cb cap Ac trans Ci fib]
+18.7 +13.2 70 +19 +22 холодно 1009.1 993.2
15 18.07 ЮЗ 3
{15}
20 км гроза без осадков {ливн. осадки} 9/6 600 м
[Cb cap Ac cuf Ci fib]
+18.8 +15.8 83 +20 +21 прохладно 1009.8 993.9
18 18.07 ЮЗ 1 10 км {гроза, ливн. осадки} 8/4 600 м
[Cb cap Ac trans Ci fib]
+18.6 +15.8 84 +21 +21 комфорт 1010.3 994.4 +20.9 2
21 18.07 З 1 10 км 6/3 600 м
[Cb cap Ac trans]
+15.2 +13.4 89 +16 +16 по сезону 1011.8 995.7
00 19.07 ЮЗ 1 10 км 3/0
[Ac trans]
+13.6 +12.1 91 +14 +14 по сезону 1012.2 996.1
03 19.07 З 1 10 км ясно +12.6 +11.1 91 +13 +13 прохладно 1013.3 997.1
06 19.07 ЮЗ 1 20 км ясно +17.1 +13.0 77 +18 +26 по сезону 1014.0 997.9 +12.2
09 19.07 ЮЗ 4 20 км 6/6 600 м
[Cb calv]
+23.1 +13.0 53 +26 +30 жарко 1014.0 998.2
12 19.07 СЗ 4 20 км 4/4 600 м
[Cb calv]
+24.6 +8.4 36 +25 +31 комфорт 1013.6 997.9
15 19.07 З 3 20 км 3/3 600 м
[Cb calv]
+25.1 +11.1 41 +26 +29 жарко 1013.3 997.6
18 19.07 З 2 10 км 1/0
[Ac cuf]
+21.9 +13.2 58 +25 +25 комфорт 1014.1 998.3 +26.1
21 19.07 штиль 0 4000 м дымка 3/0
[Ac trans]
+14.9 +13.6 92 +15 +15 прохладно 1015.5 999.3

 

Местоположение метеостанции Житковичи (Гомельская область, Беларусь): широта 52.22 долгота 27.87 высота над уровнем моря 137 м.

В архиве по умолчанию представлена погода в Житковичах за последнюю неделю. Архивные данные за месяц целиком и за предыдущие месяцы, начиная с января 2011 года, Вы можете получить, выбрав интересующий диапазон дат из раскрывающегося списка и нажав кнопку "Ввод!".


*Определитесь, кто Вы:
робот инопланетянин человек

Внимание! Время в таблицах - всемирное. Для получения местного времени необходимо прибавить поправку, которая равна 3 ч.

Смотрите также архив погоды в соседних городах и на ближайших метеорологических станциях:

Погода в Полесской (Брестская область, Беларусь) (80 км)
Погода в Октябре (Гомельская область, Беларусь) (82 км)
Погода в Мозыре (Гомельская область, Беларусь) (92 км)
Погода в Слуцке (Минская область, Беларусь) (93 км)
Погода в Олевске (Житомирская область, Украина) (112 км)
Погода в Ганцевичах (Брестская область, Беларусь) (113 км)
Погода в Овруче (Житомирская область, Украина) (118 км)
Погода в Пинске (Брестская область, Беларусь) (124 км)
Погода в Василевичах (Гомельская область, Беларусь) (134 км)
Погода в Сарнах (Ровенская область, Украина) (135 км)

Пояснения к столбцам:

Ветер - указаны скорость ветра в м/с - средняя за 10 мин, порывы в срок и между сроками (в фигурных скобках) и направление, откуда дует ветер: С - северный, СВ - северо-восточный, В - восточный, ЮВ - юго-восточный, Ю - южный, ЮЗ - юго-западный, З - западный, СЗ - северо-западный.
Видимость - горизонтальная дальность видимости в метрах или километрах. При видимости от 1 до 10 км при отсутствии осадков обычно наблюдается дымка, при ухудшении видимости до 1 км и менее - туман. В сухую погоду видимость может ухудшаться дымом, пылью или мглою.
Явления - указаны атмосферные явления, наблюдавшиеся в срок или в последний час перед сроком; фигурными скобками обозначены явления, наблюдавшиеся между сроками (за 1-3 часа до срока); квадратными скобками обозначены град или гололедные отложения с указанием их диаметра в мм.
Облачность - указаны через наклонную черту общая и нижняя облачность в баллах и высота нижней границы облаков в метрах; квадратными скобками обозначены формы облаков: Ci - перистые, Cs - перисто-слоистые, Cc - перисто-кучевые, Ac - высококучевые, As - высокослоистые, Sc - слоисто-кучевые, Ns - слоисто-дождевые, Cu - кучевые, Cb - кучево-дождевые. Подробнее классификацию облаков см. в Атласе облаков (PDF).
T - Температура воздуха - температура, измеренная на высоте 2 м над землей.
Td - Температура точки росы - температура, при понижении до которой содержащийся в воздухе водяной пар достигнет насыщения.
f - Относительная влажность воздуха - влажноcть воздуха, измеренная на высоте 2 м над землей.
Te - Эффективная температура - температура, которую ощущает одетый по сезону человек в тени. Характеристика душности погоды. При расчете учитывается влияние влажности воздуха и скорости ветра на теплоощущения человека.
Tes - Эффективная температура на солнце - температура, которую ощущает человек, с поправкой на солнечный нагрев. Характеристика знойности погоды. Зависит от высоты солнца над горизонтом, облачности и скорости ветра. Ночью, в пасмурную погоду, а также при ветре 12 м/с и более поправка равна нулю.
P - Атмосферное давление - приведенное к уровню моря атмосферное давление.
Po - Атмосферное давление - измеренное на уровне метеостанции атмосферное давление.
Tmin - Минимальная температура - минимум температуры воздуха на высоте 2 м над землей.
Tmax - Максимальная температура - максимум температуры воздуха на высоте 2 м над землей.
R - Количество осадков - Количество выпавших осадков за период времени, мм. При наведении курсора мыши на число - период времени, за который выпало указанное количество осадков.
R24 - Количество осадков - Количество выпавших осадков за 24 часа, мм.
S - Снежный покров - Высота снежного покрова, см. При наведении курсора мыши на число - состояние снежного покрова и степень покрытия местности в баллах.